GW4614 Weather Reports


time (UTC)temp
C
wind
direction
speed
KPH
gust
KPH
rain 1hr
cm
rain 24hr
cm
rain mn
cm
humidity
%
barometer
mb
20260504130603 15 176 6.4 11.3 0.00 0.00 0.00 50 1015.0
20260504110445 5 128 0.0 0.0 0.00 0.00 0.00 88 1015.8
20260504100406 4 132 0.0 1.6 0.00 0.00 0.00 88 1015.7
20260504081754 4 110 0.0 0.0 0.00 0.00 0.00 88 1016.1
20260504081250 5 34 0.0 0.0 0.00 0.00 0.00 86 1015.8
20260504080747 4 125 0.0 0.0 0.00 0.00 0.00 84 1015.9
20260504080243 4 125 0.0 0.0 0.00 0.00 0.00 84 1015.9
20260504070211 5 85 0.0 0.0 0.00 0.00 0.00 85 1016.2
20260504060131 5 153 0.0 0.0 0.00 0.00 0.00 86 1016.5
20260504050559 4 231 0.0 0.0 0.00 0.00 0.00 83 1016.7
20260504045553 4 173 0.0 0.0 0.00 0.00 0.00 86 1016.9
20260504045048 4 180 0.0 0.0 0.00 0.00 0.00 84 1016.9
20260504044546 4 191 0.0 0.0 0.00 0.00 0.00 83 1017.0
20260504044043 3 191 1.6 1.6 0.00 0.00 0.00 80 1016.9
20260504043540 3 126 0.0 1.6 0.00 0.00 0.00 83 1016.7
20260504043037 3 106 0.0 0.0 0.00 0.00 0.00 85 1016.7
20260504042534 3 106 0.0 0.0 0.00 0.00 0.00 86 1016.7
20260504042031 3 213 0.0 0.0 0.00 0.00 0.00 84 1016.5
20260504041527 3 172 1.6 1.6 0.00 0.00 0.00 84 1016.7
20260504041023 3 138 1.6 1.6 0.00 0.00 0.00 86 1016.9
20260504040521 3 77 0.0 0.0 0.00 0.00 0.00 85 1016.5
20260504040018 3 73 1.6 1.6 0.00 0.00 0.00 83 1016.6
20260504035514 3 159 0.0 1.6 0.00 0.00 0.00 82 1017.0
20260504035010 3 148 0.0 1.6 0.00 0.00 0.00 81 1016.9
20260504034508 3 131 3.2 3.2 0.00 0.00 0.00 80 1017.0
20260504034005 3 226 0.0 1.6 0.00 0.00 0.00 80 1016.7
20260504033503 3 158 1.6 1.6 0.00 0.00 0.00 80 1016.5
20260504033000 3 105 1.6 1.6 0.00 0.00 0.00 75 1016.6
20260504032457 2 101 1.6 3.2 0.00 0.00 0.00 80 1016.9
20260504031953 2 85 0.0 1.6 0.00 0.00 0.00 83 1016.7
20260504031450 2 81 0.0 0.0 0.00 0.00 0.00 85 1016.7
20260504030947 2 79 0.0 1.6 0.00 0.00 0.00 84 1016.7
20260504030444 2 89 1.6 1.6 0.00 0.00 0.00 84 1017.0
20260504025940 2 246 0.0 0.0 0.00 0.00 0.00 83 1016.7
20260504025437 2 192 0.0 0.0 0.00 0.00 0.00 81 1016.6
20260504024934 2 190 3.2 3.2 0.00 0.00 0.00 83 1016.5
20260504024431 2 150 0.0 1.6 0.00 0.00 0.00 84 1016.6
20260504023928 2 102 0.0 0.0 0.00 0.00 0.00 83 1016.5
20260504023425 2 102 0.0 0.0 0.00 0.00 0.00 83 1016.5
20260504022920 2 103 0.0 0.0 0.00 0.00 0.00 81 1016.9
20260504022417 2 122 0.0 0.0 0.00 0.00 0.00 81 1016.5
20260504021913 2 122 0.0 0.0 0.00 0.00 0.00 82 1016.6
20260504021411 -17 0.0 0.0 0.00 0.00 0.00 1016.7
20260504020908 2 94 0.0 0.0 0.00 0.00 0.00 79 1016.7
20260504020404 2 94 0.0 0.0 0.00 0.00 0.00 79 1016.6
20260504015900 3 94 0.0 0.0 0.00 0.00 0.00 78 1016.4
20260504015357 3 94 0.0 0.0 0.00 0.00 0.00 78 1016.3
20260504014853 -17 0.0 0.0 0.00 0.00 0.00 1016.3
20260504014349 3 147 1.6 1.6 0.00 0.00 0.00 77 1016.3
20260504013847 3 147 1.6 1.6 0.00 0.00 0.00 77 1016.3
20260504013345 -17 0.0 0.0 0.00 0.00 0.00 1016.3
20260504012841 4 158 0.0 1.6 0.00 0.00 0.00 73 1016.1
20260504012339 4 158 0.0 1.6 0.00 0.00 0.00 73 1016.1
20260504011836 4 157 0.0 0.0 0.00 0.00 0.00 72 1016.0
20260504011332 5 148 1.6 1.6 0.00 0.00 0.00 73 1015.9
20260504010828 -17 0.0 0.0 0.00 0.00 0.00 1015.7
20260504010324 -17 0.0 0.0 0.00 0.00 0.00 1015.4
20260504005821 -17 0.0 0.0 0.00 0.00 0.00 1015.8
20260504005318 -17 0.0 0.0 0.00 0.00 0.00 1015.8
20260504004816 -17 0.0 0.0 0.00 0.00 0.00 1015.6
20260504004313 6 312 0.0 0.0 0.00 0.00 0.00 66 1015.7
20260504003809 6 312 0.0 0.0 0.00 0.00 0.00 66 1015.5
20260504003307 -17 0.0 0.0 0.00 0.00 0.00 1015.6
20260504002803 -17 0.0 0.0 0.00 0.00 0.00 1015.6
20260504002300 -17 0.0 0.0 0.00 0.00 0.00 1015.5
20260504001758 -17 0.0 0.0 0.00 0.00 0.00 1015.5
20260504001255 8 148 1.6 1.6 0.00 0.00 0.00 54 1015.6
20260504000752 8 148 1.6 1.6 0.00 0.00 0.00 54 1015.5
20260504000248 8 185 0.0 1.6 0.00 0.00 0.00 54 1015.5
20260503235747 9 190 1.6 3.2 0.00 0.00 0.00 53 1015.4
20260503235243 9 158 1.6 3.2 0.00 0.00 0.00 47 1015.5
20260503234741 10 65 1.6 1.6 0.00 0.00 0.00 48 1015.4
20260503234239 10 318 6.4 6.4 0.00 0.00 0.00 46 1015.5
20260503233735 11 162 1.6 1.6 0.00 0.00 0.00 44 1015.5
20260503233231 11 116 0.0 1.6 0.00 0.00 0.00 36 1015.6
20260503232728 11 169 0.0 1.6 0.00 0.00 0.00 35 1015.3
20260503232226 12 146 1.6 1.6 0.00 0.00 0.00 36 1015.5
20260503231724 12 317 6.4 6.4 0.00 0.00 0.00 34 1015.5
20260503231220 12 324 3.2 4.8 0.00 0.00 0.00 36 1015.5
20260503230716 12 20 3.2 4.8 0.00 0.00 0.00 33 1015.2
20260503230214 12 154 1.6 1.6 0.00 0.00 0.00 35 1015.2
20260503225711 12 154 1.6 1.6 0.00 0.00 0.00 35 1015.4
20260503225211 12 178 1.6 1.6 0.00 0.00 0.00 34 1015.4
20260503224709 12 211 1.6 1.6 0.00 0.00 0.00 35 1015.4
20260503224207 12 183 1.6 1.6 0.00 0.00 0.00 34 1015.4
20260503223704 13 295 4.8 12.9 0.00 0.00 0.00 33 1015.2
20260503223201 13 309 11.3 14.5 0.00 0.00 0.00 32 1015.2
20260503222657 13 309 11.3 14.5 0.00 0.00 0.00 32 1015.3
20260503222155 13 281 4.8 6.4 0.00 0.00 0.00 34 1015.2
20260503221654 13 281 4.8 6.4 0.00 0.00 0.00 34 1015.2
20260503221150 13 325 1.6 4.8 0.00 0.00 0.00 32 1015.2
20260503220647 -17 0.0 0.0 0.00 0.00 0.00 1015.4
20260503220143 -17 0.0 0.0 0.00 0.00 0.00 1015.2
20260503215641 14 191 3.2 3.2 0.00 0.00 0.00 33 1015.4
20260503215137 14 191 3.2 3.2 0.00 0.00 0.00 33 1015.3
20260503214636 14 300 6.4 14.5 0.00 0.00 0.00 31 1015.5
20260503214132 14 35 9.7 11.3 0.00 0.00 0.00 33 1015.2
20260503213626 13 279 1.6 3.2 0.00 0.00 0.00 34 1015.3
20260503213122 13 341 11.3 14.5 0.00 0.00 0.00 33 1015.5
20260503212619 13 300 12.9 16.1 0.00 0.00 0.00 34 1015.6
20260503212116 15 340 1.6 11.3 0.00 0.00 0.00 33 1015.4
20260503211609 15 272 3.2 4.8 0.00 0.00 0.00 37 1015.4
20260503211104 14 327 3.2 6.4 0.00 0.00 0.00 37 1015.5
20260503210601 13 19 8.0 12.9 0.00 0.00 0.00 31 1015.4
20260503210056 13 326 14.5 17.7 0.00 0.00 0.00 34 1015.4
20260503205553 13 282 11.3 22.5 0.00 0.00 0.00 33 1015.6
20260503205049 14 311 9.7 14.5 0.00 0.00 0.00 35 1015.6
20260503204546 14 340 4.8 9.7 0.00 0.00 0.00 32 1015.8
20260503204043 13 314 6.4 9.7 0.00 0.00 0.00 34 1015.5
20260503203535 14 79 1.6 3.2 0.00 0.00 0.00 32 1015.7
20260503203032 13 150 3.2 3.2 0.00 0.00 0.00 37 1015.7
20260503202530 13 325 6.4 11.3 0.00 0.00 0.00 36 1015.7
20260503202027 13 325 6.4 11.3 0.00 0.00 0.00 36 1015.5
20260503201520 13 330 9.7 11.3 0.00 0.00 0.00 34 1015.8
20260503201017 13 183 4.8 4.8 0.00 0.00 0.00 35 1015.9
20260503200513 13 299 3.2 12.9 0.00 0.00 0.00 36 1016.0
20260503200010 12 303 9.7 11.3 0.00 0.00 0.00 36 1016.1
20260503195507 13 345 9.7 12.9 0.00 0.00 0.00 39 1016.2
20260503195003 13 350 9.7 11.3 0.00 0.00 0.00 34 1016.0
20260503194500 13 323 16.1 17.7 0.00 0.00 0.00 34 1016.1
20260503193955 14 300 14.5 17.7 0.00 0.00 0.00 31 1016.1
20260503193451 13 338 3.2 3.2 0.00 0.00 0.00 35 1016.5
20260503192947 13 310 9.7 12.9 0.00 0.00 0.00 30 1016.2
20260503192444 13 331 14.5 17.7 0.00 0.00 0.00 33 1016.3
20260503191939 12 356 4.8 4.8 0.00 0.00 0.00 36 1016.3
20260503191437 13 309 11.3 16.1 0.00 0.00 0.00 35 1016.5
20260503190933 13 276 1.6 1.6 0.00 0.00 0.00 39 1016.7
20260503190431 13 311 6.4 6.4 0.00 0.00 0.00 36 1016.5
20260503185927 13 294 9.7 17.7 0.00 0.00 0.00 34 1016.9
20260503185424 13 339 14.5 16.1 0.00 0.00 0.00 35 1016.9
20260503184923 12 358 4.8 9.7 0.00 0.00 0.00 41 1017.1
20260503184420 13 316 14.5 16.1 0.00 0.00 0.00 36 1017.1
20260503183916 13 233 3.2 4.8 0.00 0.00 0.00 33 1017.0
20260503183413 12 301 9.7 16.1 0.00 0.00 0.00 36 1016.9
20260503182910 13 210 8.0 9.7 0.00 0.00 0.00 33 1017.0
20260503182409 12 307 4.8 11.3 0.00 0.00 0.00 36 1016.9
20260503181906 12 317 12.9 14.5 0.00 0.00 0.00 35 1017.0
20260503181403 -17 0.0 0.0 0.00 0.00 0.00 1017.0
20260503180859 -17 0.0 0.0 0.00 0.00 0.00 1017.1
20260503180357 11 288 19.3 24.1 0.00 0.00 0.00 36 1017.2
20260503175853 11 288 19.3 24.1 0.00 0.00 0.00 36 1017.2
20260503175352 11 18 1.6 3.2 0.00 0.00 0.00 35 1017.1
20260503174847 11 18 1.6 3.2 0.00 0.00 0.00 35 1017.1
20260503174345 12 143 11.3 12.9 0.00 0.00 0.00 37 1017.1
20260503173845 11 163 3.2 9.7 0.00 0.00 0.00 37 1017.2
20260503173342 11 296 6.4 6.4 0.00 0.00 0.00 38 1017.1
20260503172838 11 359 12.9 14.5 0.00 0.00 0.00 39 1017.2
20260503172336 11 42 8.0 12.9 0.00 0.00 0.00 37 1017.4
20260503171832 11 212 1.6 3.2 0.00 0.00 0.00 44 1017.4
20260503171329 11 212 1.6 3.2 0.00 0.00 0.00 44 1017.4
20260503170826 11 170 3.2 3.2 0.00 0.00 0.00 39 1017.5
20260503170323 11 214 6.4 11.3 0.00 0.00 0.00 42 1017.5
20260503150715 9 214 0.0 1.6 0.00 0.00 0.00 51 1018.5
20260503150211 8 298 9.7 14.5 0.00 0.00 0.00 48 1018.6
20260503140136 7 305 4.8 4.8 0.00 0.00 0.00 57 1018.6